ERS-1

Last updated on Sun Jun 21 2026 00:02:15 GMT+0000 (Coordinated Universal Time)

1 21574U 91050A 26171.01462127 .00000124 00000+0 54570-4 0 9995 2 21574 98.7796 191.7818 0030736 258.2342 101.5397 14.39518368830451
UTC large
Height (km)
Speed (km/s)
/
Latitude / Longitude
Inclination (degrees)
Orbital Period (minutes)
Azimuth
Elevation
Range (km)
Doppler Factor

Next 0 passes for location: London (51.5072 / 0.1276)

No passes found over London.
ERS-1